Laramie, WY

2:01 PM MDT on April 24, 2017 (GMT -0600)
Laramie Regional

Weather History for KLAR - August, 2013

Change the Weather History Date:

Friday, August 23, 2013

  Actual Average Record
Temperature  
Mean Temperature 66 °F 61 °F  
Max Temperature 81 °F 77 °F 87 °F (2006)
Min Temperature 50 °F 46 °F 35 °F (1954)
Degree Days  
Heating Degree Days 0 4  
Month to date heating degree days 45 62  
Since 1 June heating degree days 170 372  
Since 1 July heating degree days 67 131  
Cooling Degree Days 1 0  
Month to date cooling degree days 29 17  
Year to date cooling degree days 123 64  
Since 1 June cooling degree days 123 64  
Growing Degree Days 16 (Base 50)    
Moisture  
Dew Point 50 °F    
Average Humidity 63    
Maximum Humidity 96    
Minimum Humidity 30    
Precipitation  
Precipitation 0.17 in 0.03 in 0.41 in (1951)
Month to date precipitation 0.62 0.95  
Year to date precipitation 5.91 7.87  
Sea Level Pressure  
Sea Level Pressure 29.97 in    
Wind  
Wind Speed 8 mph (SSW)    
Max Wind Speed 41 mph    
Max Gust Speed 53 mph    
Visibility 8 miles    
Events Rain , Thunderstorm    
T = Trace of Precipitation, MM = Missing Value Source: NWS Daily Summary

Daily Weather History Graph

Daily Weather History Graph

Search for Another Location

Airport or City:

Trip Planner

Search our weather history database for the weather conditions in past years. The results will help you decide how hot, cold, wet, or windy it might be!

Date:

Astronomy

Aug. 23, 2013 Rise Set
Actual Time 6:20 AM MDT 7:49 PM MDT
Civil Twilight 5:51 AM MDT 8:18 PM MDT
Nautical Twilight 5:16 AM MDT 8:53 PM MDT
Astronomical Twilight 4:39 AM MDT 9:30 PM MDT
Moon 9:06 PM MDT (8/23) 9:21 AM MDT (8/23)
Length of Visible Light 14h 27m
Length of Day
13h 29m
Waning Gibbous, 91% of the Moon is Illuminated
Aug 23
Waning Gibbous
Aug 28
Last Quarter
Sep 5
New
Sep 12
First Quarter
Sep 19
Full

Hourly Weather History & Observations

Time (MDT) Temp. Dew Point Humidity Pressure Visibility Wind Dir Wind Speed Gust Speed Precip Events Conditions
12:53 AM 57.0 °F 53.1 °F 87% 29.95 in 10.0 mi SSE 11.5 mph - N/A   Clear
1:53 AM 55.9 °F 51.1 °F 84% 29.92 in 10.0 mi South 9.2 mph - N/A   Clear
2:53 AM 53.1 °F 50.0 °F 89% 29.93 in 10.0 mi West 4.6 mph - N/A   Clear
3:53 AM 54.0 °F 48.0 °F 80% 29.94 in 10.0 mi Calm Calm - N/A   Scattered Clouds
4:53 AM 52.0 °F 48.0 °F 86% 29.99 in 10.0 mi SE 5.8 mph - N/A   Clear
5:53 AM 53.1 °F 48.0 °F 83% 29.96 in 10.0 mi SSW 5.8 mph - N/A   Clear
6:53 AM 53.1 °F 48.0 °F 83% 29.97 in 10.0 mi SE 8.1 mph - N/A   Clear
7:53 AM 57.0 °F 48.9 °F 74% 29.96 in 10.0 mi SSE 3.5 mph - N/A   Clear
8:53 AM 66.0 °F 48.9 °F 54% 29.93 in 10.0 mi WSW 3.5 mph - N/A   Clear
9:53 AM 69.1 °F 48.0 °F 47% 29.92 in 10.0 mi SW 10.4 mph - N/A   Clear
10:53 AM 69.1 °F 46.9 °F 45% 29.93 in 10.0 mi WSW 8.1 mph - N/A   Clear
11:53 AM 73.0 °F 46.9 °F 39% 29.90 in 10.0 mi Variable 4.6 mph - N/A   Clear
12:53 PM 77.0 °F 46.9 °F 34% 29.86 in 10.0 mi Variable 4.6 mph - N/A   Clear
1:53 PM 78.1 °F 46.0 °F 32% 29.84 in 10.0 mi Variable 4.6 mph - N/A   Scattered Clouds
2:53 PM 80.1 °F 46.0 °F 30% 29.82 in 10.0 mi NNE 6.9 mph - N/A   Partly Cloudy
3:53 PM 73.9 °F 52.0 °F 46% 29.83 in 10.0 mi SE 11.5 mph 18.4 mph 0.00 in   Mostly Cloudy
4:39 PM 71.6 °F 50.0 °F 46% 30.15 in 10.0 mi SSE 19.6 mph 25.3 mph 0.00 in Thunderstorm Mostly Cloudy
4:53 PM 70.0 °F 53.1 °F 55% 29.88 in 10.0 mi South 18.4 mph - 0.00 in Rain , Thunderstorm Light Rain
5:09 PM 64.4 °F 53.6 °F 68% 30.17 in 4.0 mi WSW 26.5 mph 31.1 mph 0.01 in Rain , Thunderstorm Light Thunderstorms and Rain
5:12 PM 64.4 °F 51.8 °F 64% 30.18 in 1.5 mi WSW 20.7 mph 31.1 mph 0.04 in Rain , Thunderstorm Thunderstorms and Rain
5:24 PM 66.2 °F 53.6 °F 64% 30.17 in 3.0 mi NW 6.9 mph - 0.06 in Rain , Thunderstorm Light Thunderstorms and Rain
5:53 PM 70.0 °F 51.1 °F 51% 29.85 in 10.0 mi Calm Calm - 0.06 in   Clear
6:53 PM 70.0 °F 54.0 °F 57% 29.85 in 10.0 mi SSW 6.9 mph - N/A   Clear
7:53 PM 66.0 °F 50.0 °F 56% 29.89 in 10.0 mi SW 12.7 mph - 0.00 in Rain Light Rain
8:04 PM 59.0 °F 51.8 °F 77% 30.22 in 2.5 mi WSW 41.4 mph 52.9 mph 0.03 in Rain Heavy Rain
8:08 PM 57.2 °F 53.6 °F 88% 30.23 in 1.8 mi WSW 35.7 mph 52.9 mph 0.05 in Rain Rain
8:17 PM 57.2 °F 53.6 °F 88% 30.24 in 3.0 mi WSW 26.5 mph 41.4 mph 0.06 in Rain Light Rain
8:53 PM 57.0 °F 53.1 °F 87% 29.96 in 7.0 mi WSW 20.7 mph - 0.07 in Rain Light Rain
9:53 PM 55.9 °F 51.1 °F 84% 29.96 in 10.0 mi West 13.8 mph - 0.03 in Rain Light Rain
10:53 PM 55.0 °F 50.0 °F 83% 29.91 in 10.0 mi Variable 4.6 mph - 0.01 in   Partly Cloudy
11:53 PM 52.0 °F 50.0 °F 93% 29.91 in 10.0 mi South 11.5 mph - N/A   Clear